| time (UTC) | temp F | wind direction | speed MPH | gust MPH | rain 1hr in | rain 24hr in | rain mn in | humidity % | barometer mb |
| 20260831144546 | 60 | 333 | 0.0 | 2.0 | 0.00 | 0.10 | 0.00 | 62 | 1020.1 |
| 20260831144043 | 59 | 334 | 0.0 | 2.0 | 0.00 | 0.10 | 0.00 | 64 | 1020.3 |
| 20260831143543 | 58 | 46 | 0.0 | 1.0 | 0.00 | 0.10 | 0.00 | 65 | 1020.3 |
| 20260831143042 | 56 | 39 | 0.0 | 1.0 | 0.00 | 0.10 | 0.00 | 68 | 1020.2 |
| 20260831142540 | 55 | 269 | 0.0 | 0.0 | 0.00 | 0.10 | 0.00 | 71 | 1020.3 |
| 20260831142037 | 54 | 269 | 0.0 | 3.0 | 0.00 | 0.10 | 0.00 | 73 | 1020.3 |
| 20260831141538 | 53 | 279 | 0.0 | 4.0 | 0.00 | 0.10 | 0.00 | 73 | 1020.3 |
| 20260831141037 | 52 | 307 | 2.0 | 5.0 | 0.00 | 0.10 | 0.00 | 74 | 1020.1 |
| 20260831140536 | 52 | 302 | 2.0 | 5.0 | 0.00 | 0.10 | 0.00 | 76 | 1020.0 |
| 20260831140043 | 51 | 327 | 1.0 | 4.0 | 0.00 | 0.10 | 0.00 | 77 | 1020.1 |
| 20260831135534 | 50 | 285 | 1.0 | 4.0 | 0.00 | 0.10 | 0.00 | 78 | 1020.0 |
| 20260831135033 | 50 | 290 | 1.0 | 4.0 | 0.00 | 0.10 | 0.00 | 79 | 1020.0 |
| 20260831134534 | 50 | 300 | 1.0 | 4.0 | 0.00 | 0.10 | 0.00 | 79 | 1019.8 |
| 20260831134032 | 50 | 274 | 1.0 | 3.0 | 0.00 | 0.10 | 0.00 | 79 | 1019.8 |
| 20260831133532 | 50 | 284 | 1.0 | 3.0 | 0.00 | 0.10 | 0.00 | 80 | 1019.8 |
| 20260831133032 | 49 | 276 | 0.0 | 3.0 | 0.00 | 0.10 | 0.00 | 80 | 1019.7 |
| 20260831132630 | 49 | 293 | 1.0 | 4.0 | 0.00 | 0.10 | 0.00 | 79 | 1019.7 |
| 20260831132009 | 49 | 287 | 1.0 | 4.0 | 0.00 | 0.10 | 0.00 | 80 | 1019.6 |
| 20260831131507 | 49 | 281 | 0.0 | 4.0 | 0.00 | 0.10 | 0.00 | 80 | 1019.7 |
| 20260831131008 | 49 | 332 | 1.0 | 4.0 | 0.00 | 0.10 | 0.00 | 80 | 1019.7 |
| 20260831130506 | 49 | 284 | 0.0 | 3.0 | 0.00 | 0.10 | 0.00 | 80 | 1019.7 |
| 20260831130005 | 49 | 232 | 0.0 | 3.0 | 0.00 | 0.10 | 0.00 | 80 | 1019.6 |
| 20260831125504 | 49 | 280 | 0.0 | 3.0 | 0.00 | 0.10 | 0.00 | 80 | 1019.4 |
| 20260831125004 | 49 | 285 | 0.0 | 3.0 | 0.00 | 0.10 | 0.00 | 80 | 1019.3 |
| 20260831124504 | 49 | 278 | 0.0 | 4.0 | 0.00 | 0.10 | 0.00 | 80 | 1019.3 |
| 20260831124004 | 49 | 293 | 1.0 | 4.0 | 0.00 | 0.10 | 0.00 | 80 | 1019.2 |
| 20260831123502 | 48 | 277 | 1.0 | 4.0 | 0.00 | 0.10 | 0.00 | 81 | 1019.1 |
| 20260831123002 | 48 | 274 | 0.0 | 3.0 | 0.00 | 0.10 | 0.00 | 80 | 1019.1 |
| 20260831122502 | 49 | 303 | 1.0 | 3.0 | 0.00 | 0.10 | 0.00 | 80 | 1019.1 |
| 20260831122002 | 48 | 308 | 1.0 | 2.0 | 0.00 | 0.10 | 0.00 | 81 | 1019.0 |
| 20260831121611 | 48 | 277 | 0.0 | 1.0 | 0.00 | 0.10 | 0.00 | 82 | 1019.0 |
| 20260831121101 | 48 | 281 | 0.0 | 1.0 | 0.00 | 0.10 | 0.00 | 83 | 1018.9 |
| 20260831120600 | 48 | 281 | 0.0 | 2.0 | 0.00 | 0.10 | 0.00 | 82 | 1018.8 |
| 20260831120058 | 48 | 281 | 0.0 | 2.0 | 0.00 | 0.10 | 0.00 | 82 | 1018.7 |
| 20260831115558 | 48 | 278 | 0.0 | 1.0 | 0.00 | 0.10 | 0.00 | 82 | 1018.6 |
| 20260831115058 | 48 | 266 | 0.0 | 1.0 | 0.00 | 0.10 | 0.00 | 82 | 1018.6 |
| 20260831114558 | 48 | 280 | 0.0 | 1.0 | 0.00 | 0.10 | 0.00 | 81 | 1018.7 |
| 20260831114058 | 48 | 279 | 0.0 | 1.0 | 0.00 | 0.10 | 0.00 | 80 | 1018.6 |
| 20260831113558 | 49 | 280 | 0.0 | 0.0 | 0.00 | 0.10 | 0.00 | 79 | 1018.6 |
| 20260831113056 | 49 | 278 | 0.0 | 1.0 | 0.00 | 0.10 | 0.00 | 79 | 1018.6 |
| 20260831112600 | 49 | 278 | 0.0 | 1.0 | 0.00 | 0.10 | 0.00 | 79 | 1018.5 |
| 20260831112054 | 49 | 278 | 0.0 | 1.0 | 0.00 | 0.10 | 0.00 | 78 | 1018.5 |
| 20260831111557 | 50 | 278 | 0.0 | 1.0 | 0.00 | 0.10 | 0.00 | 77 | 1018.3 |
| 20260831111054 | 50 | 278 | 0.0 | 2.0 | 0.00 | 0.10 | 0.00 | 77 | 1018.3 |
| 20260831110556 | 49 | 278 | 0.0 | 2.0 | 0.00 | 0.10 | 0.00 | 77 | 1018.2 |
| 20260831110100 | 49 | 260 | 0.0 | 1.0 | 0.00 | 0.10 | 0.00 | 77 | 1018.2 |
| 20260831105551 | 49 | 262 | 0.0 | 1.0 | 0.00 | 0.10 | 0.00 | 78 | 1018.1 |
| 20260831105054 | 49 | 101 | 0.0 | 1.0 | 0.00 | 0.10 | 0.00 | 78 | 1017.9 |
| 20260831104552 | 49 | 283 | 0.0 | 2.0 | 0.00 | 0.10 | 0.00 | 79 | 1017.9 |
| 20260831104051 | 49 | 283 | 0.0 | 2.0 | 0.00 | 0.10 | 0.00 | 79 | 1017.9 |
| 20260831103554 | 48 | 316 | 0.0 | 1.0 | 0.00 | 0.10 | 0.00 | 81 | 1017.9 |
| 20260831103054 | 48 | 264 | 0.0 | 1.0 | 0.00 | 0.10 | 0.00 | 81 | 1017.8 |
| 20260831102553 | 48 | 264 | 0.0 | 1.0 | 0.00 | 0.10 | 0.00 | 81 | 1017.8 |
| 20260831102049 | 48 | 262 | 0.0 | 0.0 | 0.00 | 0.10 | 0.00 | 81 | 1017.7 |
| 20260831101553 | 48 | 262 | 0.0 | 0.0 | 0.00 | 0.10 | 0.00 | 82 | 1017.7 |
| 20260831101047 | 48 | 263 | 0.0 | 0.0 | 0.00 | 0.10 | 0.00 | 79 | 1017.6 |
| 20260831100546 | 48 | 263 | 0.0 | 0.0 | 0.00 | 0.10 | 0.00 | 80 | 1017.6 |
| 20260831100046 | 49 | 263 | 0.0 | 1.0 | 0.00 | 0.10 | 0.00 | 80 | 1017.5 |
| 20260831095549 | 49 | 262 | 0.0 | 1.0 | 0.00 | 0.10 | 0.00 | 79 | 1017.4 |
| 20260831095050 | 49 | 263 | 0.0 | 0.0 | 0.00 | 0.10 | 0.00 | 78 | 1017.4 |
| 20260831094545 | 49 | 263 | 0.0 | 0.0 | 0.00 | 0.10 | 0.00 | 77 | 1017.2 |
| 20260831094044 | 49 | 263 | 0.0 | 0.0 | 0.00 | 0.10 | 0.00 | 78 | 1017.2 |
| 20260831093545 | 50 | 263 | 0.0 | 1.0 | 0.00 | 0.10 | 0.00 | 77 | 1017.2 |
| 20260831093045 | 50 | 263 | 0.0 | 1.0 | 0.00 | 0.10 | 0.00 | 76 | 1017.2 |
| 20260831092545 | 50 | 263 | 0.0 | 1.0 | 0.00 | 0.10 | 0.00 | 75 | 1017.1 |
| 20260831092043 | 50 | 262 | 0.0 | 0.0 | 0.00 | 0.10 | 0.00 | 75 | 1017.1 |
| 20260831091547 | 50 | 263 | 0.0 | 1.0 | 0.00 | 0.10 | 0.00 | 74 | 1016.9 |
| 20260831091043 | 50 | 263 | 0.0 | 1.0 | 0.00 | 0.10 | 0.00 | 74 | 1017.0 |
| 20260831090546 | 50 | 236 | 0.0 | 1.0 | 0.00 | 0.10 | 0.00 | 77 | 1017.1 |
| 20260831090043 | 50 | 165 | 0.0 | 1.0 | 0.00 | 0.10 | 0.00 | 77 | 1017.1 |
| 20260831085545 | 49 | 184 | 0.0 | 4.0 | 0.00 | 0.10 | 0.00 | 77 | 1017.2 |
| 20260831085043 | 49 | 260 | 0.0 | 1.0 | 0.00 | 0.10 | 0.00 | 79 | 1017.1 |
| 20260831084541 | 49 | 262 | 0.0 | 1.0 | 0.00 | 0.10 | 0.00 | 80 | 1017.2 |
| 20260831084042 | 49 | 262 | 0.0 | 1.0 | 0.00 | 0.10 | 0.00 | 78 | 1017.1 |
| 20260831083541 | 49 | 262 | 0.0 | 1.0 | 0.00 | 0.10 | 0.00 | 79 | 1017.1 |
| 20260831083046 | 49 | 262 | 0.0 | 0.0 | 0.00 | 0.10 | 0.00 | 80 | 1017.1 |
| 20260831082541 | 48 | 262 | 0.0 | 0.0 | 0.00 | 0.10 | 0.00 | 82 | 1017.0 |
| 20260831082040 | 48 | 262 | 0.0 | 0.0 | 0.00 | 0.10 | 0.00 | 82 | 1017.0 |
| 20260831081540 | 48 | 262 | 0.0 | 0.0 | 0.00 | 0.10 | 0.00 | 82 | 1017.0 |
| 20260831081039 | 48 | 262 | 0.0 | 0.0 | 0.00 | 0.10 | 0.00 | 81 | 1017.0 |
| 20260831080538 | 48 | 262 | 0.0 | 0.0 | 0.00 | 0.10 | 0.00 | 81 | 1017.1 |
| 20260831080037 | 49 | 262 | 0.0 | 1.0 | 0.00 | 0.10 | 0.00 | 80 | 1017.1 |
| 20260831075538 | 49 | 261 | 0.0 | 1.0 | 0.00 | 0.10 | 0.00 | 81 | 1017.2 |
| 20260831075036 | 49 | 262 | 0.0 | 1.0 | 0.00 | 0.10 | 0.00 | 81 | 1017.4 |
| 20260831074536 | 49 | 260 | 0.0 | 0.0 | 0.00 | 0.10 | 0.00 | 80 | 1017.3 |
| 20260831074039 | 49 | 260 | 0.0 | 1.0 | 0.00 | 0.10 | 0.00 | 81 | 1017.4 |
| 20260831073535 | 49 | 260 | 0.0 | 1.0 | 0.00 | 0.10 | 0.00 | 80 | 1017.3 |
| 20260831073034 | 49 | 260 | 0.0 | 0.0 | 0.00 | 0.10 | 0.00 | 79 | 1017.3 |
| 20260831072534 | 50 | 261 | 0.0 | 0.0 | 0.00 | 0.10 | 0.00 | 79 | 1017.4 |
| 20260831072031 | 50 | 260 | 0.0 | 0.0 | 0.00 | 0.10 | 0.00 | 79 | 1017.5 |
| 20260831071538 | 50 | 260 | 0.0 | 0.0 | 0.00 | 0.10 | 0.00 | 78 | 1017.4 |
| 20260831071028 | 51 | 260 | 0.0 | 2.0 | 0.00 | 0.10 | 0.00 | 76 | 1017.5 |
| 20260831070527 | 51 | 173 | 0.0 | 3.0 | 0.00 | 0.10 | 0.00 | 75 | 1017.6 |
| 20260831070027 | 51 | 117 | 0.0 | 3.0 | 0.00 | 0.10 | 0.00 | 75 | 1017.5 |
| 20260831065527 | 51 | 92 | 1.0 | 3.0 | 0.00 | 0.10 | 0.00 | 75 | 1017.6 |
| 20260831065025 | 51 | 217 | 0.0 | 2.0 | 0.00 | 0.10 | 0.00 | 75 | 1017.6 |
| 20260831064528 | 52 | 110 | 0.0 | 2.0 | 0.00 | 0.10 | 0.00 | 75 | 1017.5 |
| 20260831064024 | 52 | 89 | 0.0 | 4.0 | 0.00 | 0.10 | 0.00 | 74 | 1017.5 |
| 20260831063524 | 52 | 89 | 1.0 | 4.0 | 0.00 | 0.10 | 0.00 | 74 | 1017.4 |
| 20260831063027 | 52 | 155 | 0.0 | 3.0 | 0.00 | 0.10 | 0.00 | 73 | 1017.5 |
| 20260831062524 | 52 | 172 | 0.0 | 3.0 | 0.00 | 0.10 | 0.00 | 73 | 1017.4 |
| 20260831062022 | 52 | 200 | 0.0 | 3.0 | 0.00 | 0.10 | 0.00 | 72 | 1017.3 |
| 20260831061522 | 52 | 170 | 0.0 | 3.0 | 0.00 | 0.10 | 0.00 | 72 | 1017.4 |
| 20260831061021 | 52 | 173 | 0.0 | 6.0 | 0.00 | 0.10 | 0.00 | 72 | 1017.3 |
| 20260831060523 | 52 | 210 | 1.0 | 6.0 | 0.00 | 0.10 | 0.00 | 72 | 1017.5 |
| 20260831060019 | 52 | 243 | 0.0 | 3.0 | 0.00 | 0.10 | 0.00 | 73 | 1017.5 |
| 20260831055523 | 52 | 238 | 0.0 | 4.0 | 0.00 | 0.10 | 0.10 | 74 | 1017.5 |
| 20260831055021 | 52 | 217 | 0.0 | 4.0 | 0.00 | 0.10 | 0.10 | 74 | 1017.7 |
| 20260831054518 | 52 | 203 | 0.0 | 5.0 | 0.00 | 0.10 | 0.10 | 74 | 1017.6 |
| 20260831054021 | 52 | 150 | 0.0 | 4.0 | 0.00 | 0.10 | 0.10 | 73 | 1017.7 |
| 20260831053518 | 52 | 288 | 0.0 | 3.0 | 0.00 | 0.10 | 0.10 | 72 | 1017.8 |
| 20260831053022 | 52 | 322 | 0.0 | 6.0 | 0.00 | 0.10 | 0.10 | 72 | 1017.9 |
| 20260831052517 | 53 | 322 | 3.0 | 9.0 | 0.00 | 0.10 | 0.10 | 71 | 1017.9 |
| 20260831052017 | 53 | 288 | 3.0 | 7.0 | 0.00 | 0.10 | 0.10 | 71 | 1017.9 |
| 20260831051528 | 53 | 297 | 2.0 | 7.0 | 0.00 | 0.10 | 0.10 | 70 | 1017.9 |
| 20260831051016 | 53 | 304 | 1.0 | 10.0 | 0.00 | 0.10 | 0.10 | 70 | 1017.9 |
| 20260831050517 | 53 | 271 | 3.0 | 13.0 | 0.00 | 0.10 | 0.10 | 69 | 1018.4 |
| 20260831050016 | 54 | 285 | 6.0 | 13.0 | 0.00 | 0.10 | 0.10 | 70 | 1018.7 |
| 20260831045517 | 54 | 255 | 4.0 | 10.0 | 0.00 | 0.10 | 0.10 | 70 | 1018.8 |
| 20260831045016 | 54 | 146 | 2.0 | 15.0 | 0.00 | 0.10 | 0.10 | 70 | 1018.7 |
| 20260831044516 | 54 | 253 | 6.0 | 15.0 | 0.00 | 0.10 | 0.10 | 71 | 1019.0 |
| 20260831044016 | 54 | 269 | 4.0 | 13.0 | 0.00 | 0.10 | 0.10 | 71 | 1019.1 |
| 20260831043515 | 55 | 243 | 5.0 | 12.0 | 0.00 | 0.10 | 0.10 | 72 | 1019.3 |
| 20260831043015 | 55 | 246 | 5.0 | 19.0 | 0.00 | 0.10 | 0.10 | 72 | 1019.5 |
| 20260831042514 | 56 | 252 | 7.0 | 20.0 | 0.00 | 0.10 | 0.10 | 71 | 1019.2 |
| 20260831042013 | 56 | 232 | 7.0 | 19.0 | 0.00 | 0.10 | 0.10 | 69 | 1019.0 |
| 20260831041512 | 57 | 255 | 8.0 | 13.0 | 0.00 | 0.10 | 0.10 | 67 | 1018.9 |
| 20260831041011 | 56 | 217 | 2.0 | 11.0 | 0.00 | 0.10 | 0.10 | 68 | 1018.7 |
| 20260831040511 | 54 | 270 | 3.0 | 11.0 | 0.00 | 0.10 | 0.10 | 72 | 1018.4 |
| 20260831040026 | 52 | 262 | 1.0 | 4.0 | 0.00 | 0.10 | 0.10 | 77 | 1018.3 |
| 20260831035513 | 51 | 267 | 0.0 | 2.0 | 0.00 | 0.10 | 0.10 | 82 | 1018.2 |
| 20260831035008 | 51 | 298 | 0.0 | 2.0 | 0.00 | 0.10 | 0.10 | 81 | 1018.0 |
| 20260831034507 | 52 | 283 | 0.0 | 1.0 | 0.00 | 0.10 | 0.10 | 81 | 1017.7 |
| 20260831034006 | 52 | 284 | 0.0 | 2.0 | 0.00 | 0.10 | 0.10 | 81 | 1017.9 |
| 20260831033507 | 52 | 274 | 0.0 | 1.0 | 0.00 | 0.10 | 0.10 | 80 | 1017.8 |
| 20260831033006 | 52 | 278 | 0.0 | 2.0 | 0.00 | 0.10 | 0.10 | 80 | 1017.7 |
| 20260831032508 | 52 | 277 | 0.0 | 2.0 | 0.00 | 0.10 | 0.10 | 80 | 1017.7 |
| 20260831032004 | 52 | 277 | 0.0 | 1.0 | 0.00 | 0.10 | 0.10 | 80 | 1017.6 |
| 20260831031505 | 52 | 277 | 0.0 | 1.0 | 0.00 | 0.10 | 0.10 | 80 | 1017.6 |
| 20260831031003 | 52 | 277 | 0.0 | 1.0 | 0.00 | 0.10 | 0.10 | 80 | 1017.5 |
| 20260831030504 | 52 | 277 | 0.0 | 2.0 | 0.00 | 0.10 | 0.10 | 81 | 1017.4 |
| 20260831030003 | 52 | 277 | 0.0 | 2.0 | 0.00 | 0.10 | 0.10 | 80 | 1017.3 |
| 20260831025603 | 52 | 277 | 0.0 | 0.0 | 0.00 | 0.10 | 0.10 | 80 | 1017.2 |
| 20260831025100 | 52 | 277 | 0.0 | 1.0 | 0.00 | 0.10 | 0.10 | 80 | 1017.0 |
| 20260831024700 | 52 | 277 | 0.0 | 1.0 | 0.00 | 0.10 | 0.10 | 79 | 1016.9 |
| 20260831024059 | 53 | 271 | 0.0 | 3.0 | 0.00 | 0.10 | 0.10 | 78 | 1016.8 |
| 20260831023559 | 53 | 264 | 0.0 | 3.0 | 0.00 | 0.10 | 0.10 | 77 | 1016.9 |
| 20260831023057 | 54 | 272 | 0.0 | 1.0 | 0.00 | 0.10 | 0.10 | 76 | 1016.9 |
| 20260831022557 | 54 | 270 | 0.0 | 1.0 | 0.00 | 0.10 | 0.10 | 75 | 1016.7 |
| 20260831022057 | 55 | 269 | 0.0 | 4.0 | 0.00 | 0.10 | 0.10 | 73 | 1016.7 |
| 20260831021556 | 55 | 269 | 1.0 | 5.0 | 0.00 | 0.10 | 0.10 | 73 | 1016.6 |
| 20260831021056 | 55 | 269 | 2.0 | 5.0 | 0.00 | 0.10 | 0.10 | 73 | 1016.5 |
| 20260831020556 | 55 | 284 | 1.0 | 4.0 | 0.00 | 0.10 | 0.10 | 74 | 1016.3 |
| 20260831020200 | 55 | 259 | 0.0 | 2.0 | 0.00 | 0.10 | 0.10 | 72 | 1016.2 |
| 20260831015556 | 56 | 273 | 1.0 | 2.0 | 0.00 | 0.10 | 0.10 | 71 | 1016.2 |
| 20260831015056 | 57 | 262 | 0.0 | 2.0 | 0.00 | 0.10 | 0.10 | 67 | 1016.1 |
| 20260831014556 | 57 | 268 | 0.0 | 2.0 | 0.00 | 0.10 | 0.10 | 67 | 1016.2 |
| 20260831014056 | 58 | 263 | 0.0 | 2.0 | 0.00 | 0.10 | 0.10 | 65 | 1016.3 |
| 20260831013555 | 58 | 266 | 0.0 | 2.0 | 0.00 | 0.10 | 0.10 | 65 | 1016.2 |
| 20260831013106 | 59 | 265 | 0.0 | 1.0 | 0.00 | 0.10 | 0.10 | 63 | 1016.1 |
| 20260831012558 | 59 | 288 | 0.0 | 2.0 | 0.00 | 0.10 | 0.10 | 61 | 1016.1 |
| 20260831012056 | 59 | 257 | 0.0 | 1.0 | 0.00 | 0.10 | 0.10 | 61 | 1016.0 |
| 20260831011554 | 60 | 264 | 0.0 | 3.0 | 0.00 | 0.10 | 0.10 | 60 | 1016.0 |
| 20260831011054 | 60 | 308 | 1.0 | 3.0 | 0.00 | 0.10 | 0.10 | 59 | 1016.0 |
| 20260831010557 | 60 | 278 | 0.0 | 1.0 | 0.00 | 0.10 | 0.10 | 58 | 1016.0 |
| 20260831010055 | 61 | 277 | 0.0 | 3.0 | 0.00 | 0.10 | 0.10 | 58 | 1015.8 |
| 20260831005554 | 61 | 288 | 1.0 | 4.0 | 0.00 | 0.10 | 0.10 | 57 | 1015.8 |
| 20260831005054 | 61 | 290 | 1.0 | 5.0 | 0.00 | 0.10 | 0.10 | 57 | 1015.7 |
| 20260831004554 | 62 | 200 | 1.0 | 5.0 | 0.00 | 0.10 | 0.10 | 55 | 1015.5 |
| 20260831004054 | 62 | 323 | 0.0 | 3.0 | 0.00 | 0.10 | 0.10 | 55 | 1015.5 |
| 20260831003557 | 62 | 181 | 0.0 | 4.0 | 0.00 | 0.10 | 0.10 | 56 | 1015.5 |
| 20260831003053 | 62 | 267 | 1.0 | 9.0 | 0.00 | 0.10 | 0.10 | 56 | 1015.5 |
| 20260831002553 | 62 | 314 | 4.0 | 9.0 | 0.00 | 0.10 | 0.10 | 55 | 1015.6 |
| 20260831002052 | 62 | 253 | 2.0 | 13.0 | 0.00 | 0.10 | 0.10 | 54 | 1015.6 |
| 20260831001552 | 62 | 207 | 3.0 | 13.0 | 0.00 | 0.10 | 0.10 | 55 | 1015.6 |
| 20260831001155 | 62 | 143 | 2.0 | 6.0 | 0.00 | 0.10 | 0.10 | 55 | 1015.6 |
| 20260831000552 | 63 | 262 | 2.0 | 13.0 | 0.00 | 0.10 | 0.10 | 55 | 1015.7 |
| 20260831000052 | 63 | 255 | 4.0 | 13.0 | 0.00 | 0.10 | 0.10 | 53 | 1015.7 |
| 20260830235554 | 64 | 338 | 3.0 | 8.0 | 0.00 | 0.10 | 0.10 | 53 | 1015.9 |
| 20260830235054 | 63 | 311 | 1.0 | 13.0 | 0.00 | 0.10 | 0.10 | 53 | 1015.6 |
| 20260830234552 | 64 | 200 | 2.0 | 10.0 | 0.00 | 0.10 | 0.10 | 52 | 1015.5 |
| 20260830234050 | 64 | 297 | 4.0 | 16.0 | 0.00 | 0.10 | 0.10 | 52 | 1015.5 |
| 20260830233550 | 64 | 321 | 4.0 | 16.0 | 0.00 | 0.10 | 0.10 | 51 | 1015.5 |
| 20260830233050 | 64 | 23 | 2.0 | 11.0 | 0.00 | 0.10 | 0.10 | 51 | 1015.2 |
| 20260830232552 | 64 | 348 | 1.0 | 11.0 | 0.00 | 0.10 | 0.10 | 52 | 1015.1 |
| 20260830232049 | 64 | 98 | 2.0 | 11.0 | 0.00 | 0.10 | 0.10 | 52 | 1014.9 |
| 20260830231559 | 63 | 86 | 3.0 | 12.0 | 0.00 | 0.10 | 0.10 | 53 | 1014.7 |
| 20260830231048 | 63 | 224 | 2.0 | 15.0 | 0.00 | 0.10 | 0.10 | 54 | 1014.7 |
| 20260830230551 | 63 | 134 | 5.0 | 15.0 | 0.00 | 0.10 | 0.10 | 54 | 1014.6 |
| 20260830230049 | 63 | 236 | 4.0 | 16.0 | 0.00 | 0.10 | 0.10 | 54 | 1014.6 |
| 20260830225547 | 63 | 203 | 6.0 | 14.0 | 0.00 | 0.10 | 0.10 | 54 | 1014.5 |
| 20260830225046 | 62 | 99 | 5.0 | 13.0 | 0.00 | 0.10 | 0.10 | 54 | 1014.5 |
| 20260830224554 | 62 | 80 | 3.0 | 24.0 | 0.00 | 0.10 | 0.10 | 55 | 1014.4 |
| 20260830224046 | 61 | 263 | 7.0 | 24.0 | 0.00 | 0.10 | 0.10 | 55 | 1014.6 |
| 20260830223546 | 61 | 330 | 5.0 | 22.0 | 0.00 | 0.10 | 0.10 | 55 | 1014.5 |
| 20260830223046 | 61 | 274 | 9.0 | 21.0 | 0.00 | 0.10 | 0.10 | 56 | 1014.6 |
| 20260830222545 | 61 | 24 | 9.0 | 23.0 | 0.00 | 0.10 | 0.10 | 56 | 1014.6 |
| 20260830222045 | 60 | 248 | 10.0 | 22.0 | 0.00 | 0.10 | 0.10 | 58 | 1014.5 |
| 20260830221550 | 60 | 257 | 8.0 | 17.0 | 0.00 | 0.10 | 0.10 | 60 | 1014.2 |
| 20260830221042 | 59 | 296 | 6.0 | 15.0 | 0.00 | 0.10 | 0.10 | 62 | 1014.6 |
| 20260830220543 | 58 | 211 | 9.0 | 15.0 | 0.00 | 0.10 | 0.10 | 63 | 1014.5 |
| 20260830220043 | 58 | 225 | 6.0 | 14.0 | 0.00 | 0.10 | 0.10 | 64 | 1014.6 |
| 20260830215543 | 58 | 236 | 4.0 | 14.0 | 0.00 | 0.10 | 0.10 | 65 | 1014.5 |
| 20260830215043 | 58 | 256 | 7.0 | 20.0 | 0.00 | 0.10 | 0.10 | 64 | 1014.6 |
| 20260830214541 | 58 | 264 | 3.0 | 20.0 | 0.00 | 0.10 | 0.10 | 64 | 1014.8 |
| 20260830214040 | 58 | 260 | 4.0 | 17.0 | 0.00 | 0.10 | 0.10 | 66 | 1014.8 |
| 20260830213540 | 57 | 314 | 6.0 | 20.0 | 0.00 | 0.10 | 0.10 | 66 | 1015.2 |
| 20260830213040 | 57 | 284 | 6.0 | 20.0 | 0.00 | 0.10 | 0.10 | 66 | 1015.2 |
| 20260830212542 | 57 | 288 | 7.0 | 20.0 | 0.00 | 0.10 | 0.10 | 66 | 1015.2 |
| 20260830212040 | 58 | 56 | 10.0 | 20.0 | 0.00 | 0.10 | 0.10 | 67 | 1015.4 |
| 20260830211539 | 57 | 285 | 6.0 | 19.0 | 0.00 | 0.10 | 0.10 | 68 | 1015.4 |
| 20260830211038 | 57 | 214 | 9.0 | 20.0 | 0.03 | 0.10 | 0.10 | 69 | 1015.3 |
| 20260830210539 | 56 | 194 | 5.0 | 21.0 | 0.04 | 0.10 | 0.10 | 71 | 1015.7 |
| 20260830210039 | 56 | 248 | 7.0 | 21.0 | 0.06 | 0.10 | 0.10 | 71 | 1015.7 |
| 20260830205539 | 56 | 318 | 7.0 | 12.0 | 0.08 | 0.11 | 0.10 | 71 | 1016.0 |
| 20260830205038 | 56 | 169 | 5.0 | 24.0 | 0.10 | 0.11 | 0.10 | 73 | 1016.2 |
| 20260830204539 | 56 | 277 | 8.0 | 24.0 | 0.10 | 0.11 | 0.10 | 74 | 1015.9 |
| 20260830204038 | 55 | 252 | 7.0 | 18.0 | 0.10 | 0.11 | 0.10 | 76 | 1016.0 |
| 20260830203538 | 55 | 297 | 8.0 | 17.0 | 0.10 | 0.11 | 0.10 | 78 | 1015.9 |
| 20260830203039 | 54 | 263 | 7.0 | 15.0 | 0.10 | 0.11 | 0.10 | 81 | 1015.9 |
| 20260830202537 | 54 | 263 | 5.0 | 11.0 | 0.10 | 0.11 | 0.10 | 84 | 1015.8 |
| 20260830202041 | 53 | 237 | 3.0 | 9.0 | 0.10 | 0.11 | 0.10 | 85 | 1015.7 |
| 20260830201541 | 52 | 297 | 2.0 | 13.0 | 0.09 | 0.10 | 0.09 | 84 | 1016.0 |
| 20260830201034 | 52 | 212 | 5.0 | 13.0 | 0.07 | 0.08 | 0.07 | 82 | 1016.7 |
| 20260830200532 | 53 | 246 | 5.0 | 19.0 | 0.06 | 0.07 | 0.06 | 80 | 1016.6 |
| 20260830200031 | 55 | 269 | 7.0 | 24.0 | 0.04 | 0.05 | 0.04 | 77 | 1016.7 |
| 20260830195533 | 59 | 212 | 11.0 | 24.0 | 0.01 | 0.02 | 0.01 | 64 | 1016.4 |
| 20260830195030 | 62 | 307 | 7.0 | 16.0 | 0.00 | 0.01 | 0.00 | 61 | 1015.5 |
| 20260830194528 | 63 | 250 | 5.0 | 13.0 | 0.00 | 0.01 | 0.00 | 60 | 1014.7 |
| 20260830194031 | 64 | 210 | 4.0 | 9.0 | 0.00 | 0.01 | 0.00 | 57 | 1014.3 |
| 20260830193527 | 64 | 22 | 2.0 | 8.0 | 0.00 | 0.01 | 0.00 | 55 | 1013.9 |
| 20260830193033 | 64 | 333 | 3.0 | 7.0 | 0.00 | 0.01 | 0.00 | 54 | 1013.7 |
| 20260830192527 | 64 | 26 | 2.0 | 13.0 | 0.00 | 0.01 | 0.00 | 55 | 1013.6 |
| 20260830192026 | 63 | 325 | 2.0 | 13.0 | 0.00 | 0.01 | 0.00 | 56 | 1013.4 |
| 20260830191526 | 63 | 211 | 4.0 | 9.0 | 0.00 | 0.01 | 0.00 | 58 | 1013.6 |
| 20260830191026 | 61 | 246 | 2.0 | 9.0 | 0.00 | 0.01 | 0.00 | 61 | 1013.9 |
| 20260830190526 | 61 | 290 | 5.0 | 15.0 | 0.00 | 0.01 | 0.00 | 60 | 1014.0 |
| 20260830190026 | 61 | 260 | 7.0 | 15.0 | 0.00 | 0.01 | 0.00 | 60 | 1014.0 |
| 20260830185527 | 61 | 276 | 4.0 | 10.0 | 0.00 | 0.01 | 0.00 | 60 | 1014.0 |
| 20260830185025 | 62 | 266 | 5.0 | 21.0 | 0.00 | 0.01 | 0.00 | 63 | 1013.9 |
| 20260830184524 | 65 | 294 | 10.0 | 29.0 | 0.00 | 0.01 | 0.00 | 55 | 1013.8 |
| 20260830184024 | 70 | 307 | 10.0 | 19.0 | 0.00 | 0.01 | 0.00 | 42 | 1013.1 |
| 20260830183524 | 70 | 177 | 3.0 | 14.0 | 0.00 | 0.01 | 0.00 | 41 | 1012.7 |
| 20260830183024 | 70 | 290 | 5.0 | 11.0 | 0.00 | 0.01 | 0.00 | 41 | 1012.6 |
| 20260830182526 | 70 | 152 | 5.0 | 12.0 | 0.00 | 0.01 | 0.00 | 42 | 1012.7 |
| 20260830182026 | 70 | 358 | 3.0 | 12.0 | 0.00 | 0.01 | 0.00 | 43 | 1012.8 |
| 20260830181523 | 70 | 271 | 4.0 | 13.0 | 0.00 | 0.01 | 0.00 | 41 | 1012.8 |
| 20260830181023 | 70 | 43 | 5.0 | 17.0 | 0.00 | 0.01 | 0.00 | 42 | 1013.1 |
| 20260830180522 | 70 | 267 | 5.0 | 15.0 | 0.00 | 0.01 | 0.00 | 41 | 1013.0 |
| 20260830180039 | 70 | 329 | 4.0 | 10.0 | 0.00 | 0.01 | 0.00 | 41 | 1013.1 |
| 20260830175520 | 70 | 218 | 3.0 | 10.0 | 0.00 | 0.01 | 0.00 | 42 | 1013.3 |
| 20260830175019 | 69 | 326 | 1.0 | 16.0 | 0.00 | 0.01 | 0.00 | 43 | 1013.3 |
| 20260830174522 | 69 | 297 | 2.0 | 13.0 | 0.00 | 0.01 | 0.00 | 45 | 1013.4 |
| 20260830174018 | 68 | 301 | 2.0 | 13.0 | 0.00 | 0.01 | 0.00 | 47 | 1013.4 |
| 20260830173516 | 68 | 255 | 6.0 | 12.0 | 0.00 | 0.01 | 0.00 | 45 | 1013.5 |
| 20260830173015 | 67 | 284 | 5.0 | 11.0 | 0.00 | 0.01 | 0.00 | 47 | 1013.5 |
| 20260830172515 | 67 | 297 | 5.0 | 11.0 | 0.00 | 0.01 | 0.00 | 47 | 1013.5 |
| 20260830172014 | 67 | 308 | 3.0 | 15.0 | 0.00 | 0.01 | 0.00 | 48 | 1013.5 |
| 20260830171515 | 67 | 249 | 7.0 | 15.0 | 0.00 | 0.01 | 0.00 | 48 | 1013.6 |
| 20260830171015 | 67 | 281 | 1.0 | 7.0 | 0.00 | 0.01 | 0.00 | 48 | 1013.6 |
| 20260830170512 | 66 | 320 | 2.0 | 15.0 | 0.00 | 0.01 | 0.00 | 49 | 1013.6 |
| 20260830170011 | 66 | 132 | 5.0 | 15.0 | 0.00 | 0.01 | 0.00 | 50 | 1013.7 |
| 20260830165509 | 65 | 240 | 3.0 | 10.0 | 0.00 | 0.01 | 0.00 | 52 | 1013.7 |
| 20260830165008 | 65 | 280 | 1.0 | 9.0 | 0.00 | 0.01 | 0.00 | 52 | 1013.8 |
| 20260830164509 | 64 | 335 | 0.0 | 9.0 | 0.00 | 0.01 | 0.00 | 52 | 1013.9 |
| 20260830164009 | 64 | 67 | 3.0 | 10.0 | 0.00 | 0.01 | 0.00 | 52 | 1014.0 |
| 20260830163510 | 64 | 80 | 3.0 | 10.0 | 0.00 | 0.01 | 0.00 | 52 | 1013.9 |
| 20260830163016 | 64 | 281 | 1.0 | 11.0 | 0.00 | 0.01 | 0.00 | 54 | 1013.9 |
| 20260830162506 | 64 | 186 | 3.0 | 12.0 | 0.00 | 0.01 | 0.00 | 53 | 1013.9 |
| 20260830162005 | 64 | 163 | 6.0 | 12.0 | 0.00 | 0.01 | 0.00 | 54 | 1013.7 |
| 20260830161503 | 63 | 301 | 4.0 | 13.0 | 0.00 | 0.01 | 0.00 | 54 | 1013.8 |
| 20260830161005 | 63 | 336 | 4.0 | 13.0 | 0.00 | 0.01 | 0.00 | 54 | 1013.9 |
| 20260830160503 | 62 | 333 | 5.0 | 16.0 | 0.00 | 0.01 | 0.00 | 54 | 1013.9 |
| 20260830160004 | 62 | 28 | 4.0 | 16.0 | 0.00 | 0.01 | 0.00 | 54 | 1013.9 |
| 20260830155503 | 62 | 253 | 6.0 | 17.0 | 0.00 | 0.01 | 0.00 | 54 | 1013.9 |
| 20260830155107 | 63 | 188 | 5.0 | 17.0 | 0.00 | 0.01 | 0.00 | 53 | 1013.8 |
| 20260830154502 | 63 | 239 | 3.0 | 11.0 | 0.00 | 0.01 | 0.00 | 55 | 1014.1 |
| 20260830154059 | 62 | 155 | 3.0 | 11.0 | 0.00 | 0.01 | 0.00 | 58 | 1013.9 |
| 20260830153557 | 61 | 253 | 2.0 | 8.0 | 0.00 | 0.01 | 0.00 | 60 | 1014.0 |
| 20260830153057 | 60 | 304 | 3.0 | 8.0 | 0.00 | 0.01 | 0.00 | 61 | 1013.9 |
| 20260830152556 | 59 | 314 | 2.0 | 9.0 | 0.00 | 0.01 | 0.00 | 62 | 1013.9 |
| 20260830152056 | 59 | 188 | 3.0 | 9.0 | 0.00 | 0.01 | 0.00 | 62 | 1013.9 |
| 20260830151559 | 59 | 337 | 1.0 | 6.0 | 0.00 | 0.01 | 0.00 | 63 | 1013.9 |
| 20260830151055 | 58 | 221 | 3.0 | 9.0 | 0.00 | 0.01 | 0.00 | 64 | 1013.9 |
| 20260830150555 | 58 | 354 | 2.0 | 9.0 | 0.00 | 0.01 | 0.00 | 65 | 1014.2 |
| 20260830150053 | 58 | 293 | 3.0 | 10.0 | 0.00 | 0.01 | 0.00 | 65 | 1014.3 |
| 20260830145556 | 58 | 303 | 2.0 | 15.0 | 0.00 | 0.01 | 0.00 | 66 | 1014.5 |
| 20260830145052 | 58 | 324 | 2.0 | 9.0 | 0.00 | 0.01 | 0.00 | 66 | 1014.6 |